Tracking 19638 objects as of 20-Apr-2019
HD Live streaming from Space Station
objects crossing your sky now

FENGYUN 1C DEB

Track FENGYUN 1C DEB now!
10-day predictions


NORAD ID: 31459
Int'l Code: 1999-025BUX
Perigee: 729.0 km
Apogee: 912.9 km
Inclination: 98.1 °
Period: 101.2 minutes
Semi major axis: 7191 km
RCS: 0.0089 m2 (small)
Launch date: May 10, 1999
Source: People's Republic of China (PRC)
Launch site: Taiyaun Space Center, China (TSC)

Note: This is SATELLITE DEBRIS
aabbcc
Your satellite tracking list
Your tracking list is empty




NASA's NSSDC Master Catalog

Two Line Element Set (TLE):
1 31459U 99025BUX 19108.91455120  .00000616  00000-0  26468-3 0  9995
2 31459  98.1115 146.2679 0127818 152.9945 207.7963 14.23421713621456
Source of the keplerian elements: AFSPC